Погода в Нововаршавке

Россия / Омская область     54°10′09″N   74°41′38″E
темп.,
°C
ветер,
м/с
пор.,
м/с
влажн.,
%
обл.,
%
осадки,
мм/ч
давл.,
гПа
погр.,
м
17 апреля, сб
сб1700:00+4с510839 0.4 1022553
03:00+2ссв797996 0.0 1023700
06:000ссв479014 0.0 1026343
09:00+1ссв447255 0.0 1027758
12:00+4с33525 0.0 10271091
15:00+6сз22412 0.0 10261308
18:00+7з23361 0.0 10241441
21:00+4юз22505 0.0 102320
18 апреля, вс
вс1800:00+3юз33597 0.0 102147
03:00+2ююз4865100 0.0 1018139
06:00+2ююз497763 0.0 1015176
09:00+6зюз51165100 0.0 1013453
12:00+10зюз10145298 0.0 10102005
15:00+11з101645100 0.2 10082490
18:00+4сз111653100 0.5 10131424
21:00−3ссз10156216 0.0 10181270
19 апреля, пн
пн1900:00−4ссз8115986 0.0 10221197
03:00−6ссз710535 0.0 10251009
06:00−7ссз79470 0.0 1028962
09:00−6ссз674379 0.0 10301289
12:00−3ссз673451 0.0 10311595
15:00−2ссз6731100 0.0 10312138
18:00−2с6733100 0.0 10312037
21:00−4с36455 0.0 1033297
20 апреля, вт
вт2000:00−4ссз36485 0.0 1033466
03:00−5с35500 0.0 1033883
06:00−5ссз24540 0.0 1034440
09:00−3ссз34405 0.0 10341154
12:000сз45335 0.0 10321495
15:00+2зсз57305 0.0 10301715
18:00+3з693527 0.0 10281728
21:00+1зюз6125064 0.0 1027306
21 апреля, ср
ср2100:00+1з81553100 0.0 1024513
03:00+1з81558100 0.0 1021541
06:00+1з71467100 0.0 1020562
09:00+2сз81291100 0.5 1020757
12:00+4ссз81161100 0.6 10211619
15:00+3ссз91260100 0.1 10231651
18:00+3с9126290 0.2 10261586
21:00+2с8137277 0.0 1029980